Location: Gilevgi
(36.8751°N, 30.0581°E)
Time: 20:39:11
(UTC+00:00)

Cosmos 2084 Rocket - Pass Details

Date: 11 December 2025
Orbit: 545 x 568 km, 62.8° (Epoch: 12 January)

Event Time Altitude Azimuth Distance (km) Brightness Sun altitude
Rises 15:47:20 0° 328° (NNW) 2,769 7.1 -12.5°
Reaches altitude 10° 15:49:34 10° 330° (NNW) 1,870 6.2 -12.9°
Maximum altitude 15:53:48 79° 57° (ENE) 582 3.3 -13.7°
Drops below altitude 10° 15:58:00 10° 144° (SE) 1,860 5.8 -14.5°
Sets 16:00:13 0° 146° (SE) 2,752 6.7 -14.9°
